Time,TemperatureF,DewpointF,PressureIn,WindDirection,WindDirectionDegrees,WindSpeedMPH,WindSpeedGustMPH,Humidity,HourlyPrecipIn,Conditions,Clouds,dailyrainin,SoftwareType,DateUTC
2013-08-01 00:14:00,74.2,65.0,30.03,ENE,75,0.0,3.0,72,0.00,,,0.00,weatherlink.com 1.10,2013-08-01 04:14:00,
2013-08-01 00:29:00,74.1,65.0,30.03,SSE,159,0.0,3.0,72,0.00,,,0.00,weatherlink.com 1.10,2013-08-01 04:29:00,
2013-08-01 00:44:00,73.9,64.0,30.02,South,174,0.0,0.0,72,0.00,,,0.00,weatherlink.com 1.10,2013-08-01 04:44:00,
2013-08-01 00:59:00,73.8,65.0,30.02,SSE,155,0.0,0.0,73,0.00,,,0.00,weatherlink.com 1.10,2013-08-01 04:59:00,
2013-08-01 01:14:00,73.7,65.0,30.02,SSE,152,1.0,1.0,74,0.00,,,0.00,weatherlink.com 1.10,2013-08-01 05:14:00,
2013-08-01 01:29:00,73.4,65.0,30.01,South,177,0.0,1.0,74,0.00,,,0.00,weatherlink.com 1.10,2013-08-01 05:29:00,
2013-08-01 01:45:00,73.3,65.0,30.01,South,177,1.0,3.0,75,0.00,,,0.00,weatherlink.com 1.10,2013-08-01 05:45:00,
2013-08-01 02:00:00,73.2,65.0,30.00,South,183,0.0,2.0,75,0.00,,,0.00,weatherlink.com 1.10,2013-08-01 06:00:00,
2013-08-01 02:15:00,73.2,65.0,30.00,SSE,160,0.0,3.0,75,0.00,,,0.00,weatherlink.com 1.10,2013-08-01 06:15:00,
2013-08-01 02:30:00,73.1,65.0,30.00,South,172,1.0,2.0,75,0.00,,,0.00,weatherlink.com 1.10,2013-08-01 06:30:00,
2013-08-01 02:45:00,73.1,65.0,29.99,South,169,0.0,1.0,75,0.00,,,0.00,weatherlink.com 1.10,2013-08-01 06:45:00,
2013-08-01 03:00:00,73.0,65.0,29.98,South,170,1.0,3.0,75,0.00,,,0.00,weatherlink.com 1.10,2013-08-01 07:00:00,
2013-08-01 03:15:00,73.0,65.0,29.98,South,178,0.0,2.0,75,0.00,,,0.00,weatherlink.com 1.10,2013-08-01 07:15:00,
2013-08-01 03:30:00,73.0,65.0,29.97,South,174,0.0,1.0,75,0.00,,,0.00,weatherlink.com 1.10,2013-08-01 07:30:00,
2013-08-01 03:45:00,72.9,65.0,29.97,SSE,158,1.0,2.0,75,0.00,,,0.00,weatherlink.com 1.10,2013-08-01 07:45:00,
2013-08-01 04:15:00,72.8,65.0,29.96,SSE,163,0.0,2.0,76,0.00,,,0.00,weatherlink.com 1.10,2013-08-01 08:15:00,
2013-08-01 04:30:00,72.8,65.0,29.96,SSE,163,1.0,2.0,76,0.00,,,0.00,weatherlink.com 1.10,2013-08-01 08:30:00,
2013-08-01 04:45:00,73.0,65.0,29.96,SSE,163,1.0,1.0,75,0.00,,,0.00,weatherlink.com 1.10,2013-08-01 08:45:00,
2013-08-01 05:00:00,73.1,65.0,29.96,South,174,0.0,2.0,75,0.00,,,0.00,weatherlink.com 1.10,2013-08-01 09:00:00,
2013-08-01 05:30:00,72.7,65.0,29.96,South,170,0.0,3.0,76,0.00,,,0.00,weatherlink.com 1.10,2013-08-01 09:30:00,
2013-08-01 06:00:00,72.4,65.0,29.96,South,174,0.0,2.0,77,0.00,,,0.00,weatherlink.com 1.10,2013-08-01 10:00:00,
2013-08-01 06:15:00,72.5,65.0,29.96,SE,146,0.0,2.0,76,0.00,,,0.00,weatherlink.com 1.10,2013-08-01 10:15:00,
2013-08-01 07:00:00,73.3,65.0,29.96,SSE,162,0.0,2.0,76,0.00,,,0.00,weatherlink.com 1.10,2013-08-01 11:00:00,
2013-08-01 07:15:00,73.5,66.0,29.96,South,169,2.0,3.0,76,0.00,,,0.00,weatherlink.com 1.10,2013-08-01 11:15:00,
2013-08-01 08:00:00,75.1,65.0,29.95,South,174,1.0,4.0,70,0.00,,,0.00,weatherlink.com 1.10,2013-08-01 12:00:00,
2013-08-01 08:45:00,75.9,65.0,29.94,SSE,163,2.0,5.0,69,0.00,,,0.00,weatherlink.com 1.10,2013-08-01 12:45:00,
2013-08-01 09:00:00,75.3,65.0,29.94,SSE,166,2.0,8.0,71,0.00,,,0.00,weatherlink.com 1.10,2013-08-01 13:00:00,
2013-08-01 10:15:00,73.9,67.0,29.94,SE,143,0.0,4.0,79,0.00,,,0.00,weatherlink.com 1.10,2013-08-01 14:15:00,
2013-08-01 10:31:00,72.1,65.0,29.94,South,169,2.0,8.0,77,0.00,,,0.00,weatherlink.com 1.10,2013-08-01 14:31:00,
2013-08-01 10:45:00,70.8,65.0,29.95,SSE,166,1.0,4.0,82,0.00,,,0.00,weatherlink.com 1.10,2013-08-01 14:45:00,
2013-08-01 11:00:00,70.6,66.0,29.95,SSE,162,2.0,4.0,86,0.01,,,0.01,weatherlink.com 1.10,2013-08-01 15:00:00,
2013-08-01 11:45:00,69.1,65.0,29.94,SSE,148,1.0,4.0,87,0.05,,,0.05,weatherlink.com 1.10,2013-08-01 15:45:00,
2013-08-01 12:01:00,68.7,65.0,29.94,South,188,1.0,3.0,88,0.09,,,0.10,weatherlink.com 1.10,2013-08-01 16:01:00,
2013-08-01 12:16:00,68.3,66.0,29.93,South,181,0.0,2.0,91,0.16,,,0.18,weatherlink.com 1.10,2013-08-01 16:16:00,
2013-08-01 12:31:00,68.1,66.0,29.93,South,177,0.0,2.0,92,0.15,,,0.20,weatherlink.com 1.10,2013-08-01 16:31:00,
2013-08-01 12:46:00,68.2,66.0,29.93,South,172,0.0,2.0,93,0.18,,,0.23,weatherlink.com 1.10,2013-08-01 16:46:00,
2013-08-01 13:01:00,68.6,67.0,29.93,SSE,163,0.0,0.0,94,0.22,,,0.32,weatherlink.com 1.10,2013-08-01 17:01:00,
2013-08-01 13:46:00,68.1,65.0,29.92,SSW,197,1.0,4.0,91,0.23,,,0.46,weatherlink.com 1.10,2013-08-01 17:46:00,
2013-08-01 14:16:00,67.9,65.0,29.91,SW,222,1.0,5.0,91,0.11,,,0.48,weatherlink.com 1.10,2013-08-01 18:16:00,
2013-08-01 14:31:00,68.2,66.0,29.90,South,177,0.0,6.0,91,0.08,,,0.50,weatherlink.com 1.10,2013-08-01 18:31:00,
2013-08-01 15:01:00,68.7,66.0,29.90,SSE,156,0.0,5.0,92,0.09,,,0.55,weatherlink.com 1.10,2013-08-01 19:01:00,
2013-08-01 15:31:00,68.1,66.0,29.89,SSW,200,1.0,3.0,93,0.31,,,0.81,weatherlink.com 1.10,2013-08-01 19:31:00,
2013-08-01 15:46:00,68.0,66.0,29.88,SSE,150,1.0,3.0,93,0.31,,,0.84,weatherlink.com 1.10,2013-08-01 19:46:00,
2013-08-01 18:31:00,70.4,68.0,29.84,SSE,168,1.0,4.0,92,0.01,,,0.89,weatherlink.com 1.10,2013-08-01 22:31:00,
2013-08-01 19:01:00,70.4,68.0,29.84,South,183,2.0,3.0,93,0.05,,,0.94,weatherlink.com 1.10,2013-08-01 23:01:00,
2013-08-01 19:16:00,70.3,68.0,29.84,South,170,0.0,2.0,93,0.06,,,0.95,weatherlink.com 1.10,2013-08-01 23:16:00,
2013-08-01 19:31:00,70.3,69.0,29.84,SSW,198,2.0,5.0,94,0.08,,,0.97,weatherlink.com 1.10,2013-08-01 23:31:00,
2013-08-01 19:46:00,70.3,69.0,29.85,South,190,3.0,5.0,94,0.08,,,0.97,weatherlink.com 1.10,2013-08-01 23:46:00,
2013-08-01 20:01:00,70.3,69.0,29.85,SSE,162,0.0,2.0,95,0.03,,,0.98,weatherlink.com 1.10,2013-08-02 00:01:00,
2013-08-01 20:16:00,70.2,69.0,29.84,South,180,0.0,3.0,95,0.06,,,1.01,weatherlink.com 1.10,2013-08-02 00:16:00,
2013-08-01 20:31:00,70.2,69.0,29.84,SSE,158,1.0,2.0,96,0.05,,,1.02,weatherlink.com 1.10,2013-08-02 00:31:00,
2013-08-01 20:46:00,70.2,69.0,29.84,SE,143,0.0,3.0,96,0.06,,,1.03,weatherlink.com 1.10,2013-08-02 00:46:00,
2013-08-01 21:01:00,70.3,69.0,29.84,SSE,153,0.0,2.0,96,0.05,,,1.03,weatherlink.com 1.10,2013-08-02 01:01:00,
2013-08-01 21:16:00,70.3,69.0,29.84,South,169,1.0,1.0,96,0.02,,,1.03,weatherlink.com 1.10,2013-08-02 01:16:00,
2013-08-01 21:46:00,70.5,69.0,29.84,SSE,155,0.0,2.0,95,0.00,,,1.03,weatherlink.com 1.10,2013-08-02 01:46:00,
2013-08-01 22:01:00,70.6,69.0,29.84,SSE,166,0.0,3.0,95,0.00,,,1.03,weatherlink.com 1.10,2013-08-02 02:01:00,
2013-08-01 22:16:00,70.6,69.0,29.83,SE,146,0.0,2.0,95,0.00,,,1.03,weatherlink.com 1.10,2013-08-02 02:16:00,
2013-08-01 22:31:00,70.6,69.0,29.83,SSE,165,0.0,2.0,95,0.00,,,1.03,weatherlink.com 1.10,2013-08-02 02:31:00,
2013-08-01 22:46:00,70.6,69.0,29.83,SSE,165,0.0,0.0,95,0.00,,,1.03,weatherlink.com 1.10,2013-08-02 02:46:00,
2013-08-01 23:01:00,70.7,70.0,29.83,SSE,160,1.0,1.0,96,0.00,,,1.03,weatherlink.com 1.10,2013-08-02 03:01:00,
2013-08-01 23:16:00,70.9,70.0,29.83,SSE,159,0.0,0.0,96,0.00,,,1.03,weatherlink.com 1.10,2013-08-02 03:16:00,
2013-08-01 23:31:00,70.8,69.0,29.83,SSE,154,0.0,0.0,95,0.00,,,1.03,weatherlink.com 1.10,2013-08-02 03:31:00,
2013-08-01 23:46:00,70.9,70.0,29.83,SE,138,0.0,0.0,95,0.00,,,1.03,weatherlink.com 1.10,2013-08-02 03:46:00,